Portada
METAR-TAF:

METAR-TAF

Aeroports :

Machala, Equador

latitud: 03-26-07S, longitud: 079-58-40W, altitud: 52 m

Observació

L'informe es va fer fa 18 minuts, a les 12:00 UTC
Vent 6 kt del Nord-Est
Temperatura 23°C
Humitat 94%
Pressió 1011 hPa
Visibilitat 10 km o més
Cel ennuvolat a una alçada de 2000 ft
Cel cobert a una alçada de 8000 ft

METAR: SERO 191200Z 05006KT 9999 BKN020 OVC080 23/22 Q1011

Hora: 07:18 (12:18 UTC)


TAF: manca

Observacions i pronòstics meteorològics de més de 4000 aeroports (METAR i TAF).

Les estacions disponibles són els punts grocs i vermells al mapa.

Posi el ratolí al punt desitjat per veure el nom de l'estació.

Feu clic per veure les observacions i els pronòstics meteorològics.

Per canviar el mapa: feu clic els botons verds amb una creu de color negre per apropar; al botó verd amb un guió per allunyar la imatge; o en les fletxes verdes per a mapes adjacents.


METAR-TAF: